Location: Krakow
(50.0212°N, 19.9423°E)
Time: 13:46:22
(UTC+02:00)

NOAA 18 - Pass Details

Date: 03 May 2025
Orbit: 837 x 857 km, 98.8° (Epoch: 14 May)

Event Time Altitude Azimuth Distance (km) Brightness Sun altitude
Exits shadow 21:46:58 19° 119° (ESE) 1,938 6.5 -14.2°
Maximum altitude 21:50:22 37° 63° (ENE) 1,307 6.1 -14.5°
Drops below altitude 10° 21:55:24 10° 358° (N) 2,502 8.4 -15.1°
Sets 21:57:56 0° 351° (N) 3,441 9.5 -15.3°
